Tracking 28790 objects as of 19-Apr-2024
HD Live streaming from Space Station
objects crossing your sky now

EUTELSAT 1-F5 (ECS 5)

Track EUTELSAT 1-F5 (ECS 5) now!
EUTELSAT 1-F5 (ECS 5) is classified as:


NORAD ID: 19331
Int'l Code: 1988-063B
Perigee: 36,341.2 km
Apogee: 36,447.8 km
Inclination: 15.0 °
Period: 1,466.9 minutes
Semi major axis: 42765 km
RCS: 5.127 m2 (large)
Launch date: July 21, 1988
Source: European Telecommunications Satellite Organization (EUTE)
Launch site: FRENCH GUIANA (FRGUI)
Your satellite tracking list
Your tracking list is empty




NASA's NSSDC Master Catalog

Two Line Element Set (TLE):
1 19331U 88063B   24108.89129646 -.00000180  00000-0  00000+0 0  9991
2 19331  14.9712 351.6609 0012470 134.5362  48.3259  0.98166333106637
Source of the keplerian elements: AFSPC